User: anonymous   Login
Location: Smithers
(54.7670°N, 127.1670°W)
Time: 00:13:15
(UTC-07:00)
Language:

ERBS - Orbit

View from above orbital plane
View from above orbital plane
View from above satellite
View from above satellite

Ground track
Ground track

The orbit data is extracted from the following two-line orbital elements,

1 15354U 84108B   16144.89528359  .00004435  00000-0  11608-3 0  9999
2 15354  57.0098  10.8223 0017536  86.6850 273.6209 15.40705524738145
Epoch (UTC): 23 May 2016 21:29:12
Eccentricity: 0.0017536
inclination: 57.0098°
perigee height: 432 km
apogee height: 456 km
right ascension of ascending node: 10.8223°
argument of perigee: 86.6850°
revolutions per day: 15.40705524
mean anomaly at epoch: 273.6209°
orbit number at epoch: 73814

The dashed part of the orbit path shows where the satellite is in the earth's shadow,  

DLR